Location: Rounton
(54.4000°N, 1.3500°W)
Time: 09:06:50
(UTC+01:00)

deb Agena D - Visible Passes

Search period start: 10 June 2023 00:00
Search period end: 20 June 2023 00:00
Orbit: 996 x 1024 km, 100.1° (Epoch: 09 June)

Date Brightness Start Highest point End Pass type
(mag) Time Alt. Az. Time Alt. Az. Time Alt. Az.
10 Jun ? 00:39:04 13° SSE 00:44:46 70° ENE 00:50:58 10° NNW visible
10 Jun ? 02:24:27 13° SSW 02:29:06 29° W 02:34:28 10° NW visible
10 Jun ? 23:31:04 10° ESE 23:36:20 30° NE 23:41:37 10° N visible
11 Jun ? 01:14:31 16° SSE 01:19:43 76° WSW 01:25:59 10° NNW visible
11 Jun ? 03:00:36 10° SW 03:04:36 17° W 03:08:36 10° NW visible
11 Jun ? 22:25:20 10° ENE 22:28:31 15° NE 22:31:43 10° N visible
12 Jun ? 00:05:06 10° SE 00:10:59 45° ENE 00:16:51 10° N visible
12 Jun ? 01:49:58 16° S 01:54:50 47° W 02:00:50 10° NNW visible
12 Jun ? 22:58:27 10° E 23:02:51 21° NE 23:07:16 10° N visible
13 Jun ? 00:40:01 12° SSE 00:45:45 70° ENE 00:51:58 10° NNW visible
13 Jun ? 02:25:24 12° SSW 02:30:07 29° W 02:35:27 10° NW visible
13 Jun ? 23:32:04 10° ESE 23:37:20 30° NE 23:42:37 10° N visible
14 Jun ? 01:15:28 15° SSE 01:20:42 76° WSW 01:26:58 10° NNW visible
14 Jun ? 03:01:38 10° SW 03:05:36 17° W 03:09:35 10° NW visible
15 Jun ? 00:06:06 10° SE 00:11:58 45° ENE 00:17:50 10° N visible
15 Jun ? 01:50:55 15° S 01:55:49 47° W 02:01:49 10° NNW visible
15 Jun ? 22:59:26 10° E 23:03:51 21° NE 23:08:16 10° N visible
16 Jun ? 00:40:58 12° SSE 00:46:45 70° ENE 00:52:57 10° NNW visible
16 Jun ? 02:26:22 12° SSW 02:31:07 29° W 02:36:26 10° NW visible
16 Jun ? 23:33:03 10° ESE 23:38:19 30° NE 23:43:36 10° N visible
17 Jun ? 01:16:26 15° SSE 01:21:42 75° WSW 01:27:57 10° NNW visible
17 Jun ? 03:02:40 10° SW 03:06:36 17° W 03:10:33 10° NW visible
18 Jun ? 00:07:05 10° SE 00:12:57 45° ENE 00:18:49 10° N visible
18 Jun ? 01:51:52 15° S 01:56:49 46° W 02:02:48 10° NNW visible
18 Jun ? 23:00:24 10° E 23:04:50 21° NE 23:09:15 10° N visible
19 Jun ? 00:41:57 12° SSE 00:47:44 71° ENE 00:53:56 10° NNW visible
19 Jun ? 02:27:20 12° SSW 02:32:07 28° W 02:37:25 10° NW visible
19 Jun ? 23:34:01 10° ESE 23:39:18 30° NE 23:44:36 10° N visible
